Weather in Shcheglovskiy

Russia / Kemerovo Oblast     55°33′49″N   85°55′23″E
temp.,
°C
wind,
m/s
gust,
m/s
humid.,
%
clouds,
%
prec.,
mm/h
press.,
hPa
HPBL,
m
22 april, thu
thu2201:00−4nne238574 0.0 1029104
04:00−4ne397982 0.0 1031300
07:00−4nne39835 0.0 1035273
10:00+1ne586198 0.0 10361348
13:00+3ne6746100 0.4 10381895
16:00+3ne674999 0.5 10391677
19:00+2nne4762100 0.8 1041908
22:00−2n310875 0.0 1043250
23 april, fri
fri2301:00−2nne310915 0.0 1044262
04:00−3nne39925 0.0 1044241
07:00−3nne410845 0.0 1044354
10:00+2ne69535 0.0 10441217
13:00+4ne69455 0.0 10431531
16:00+5ene684551 0.0 10421817
19:00+4ene375551 0.0 1042943
22:00+1n378248 0.0 1041133
24 april, sat
sat2401:00−1nne310887 0.0 1040258
04:00−1nne41088100 0.0 1038290
07:00−1nne41184100 0.0 1037385
10:00+3nne5865100 0.0 1035826
13:00+5nne5754100 0.1 10331756
16:00+5nne4661100 0.3 10321230
19:00+5nne356477 0.6 1032722
22:00+1nnw238284 0.0 103367
25 april, sun
sun2501:000nnw228652 0.0 103231
04:000nw1184100 0.0 103217
07:000nw1281100 0.0 1033107
10:00+4nw236430 0.0 1032750
13:00+7wnw2352100 0.1 10311596
16:00+8wnw234795 0.0 10301670
19:00+8n235252 0.1 1030843
22:00+4ene11695 0.0 103110
26 april, mon
mon2601:00+2se11745 0.0 103110
04:00+1sse11785 0.0 103110
07:00+2sse127725 0.0 103146
10:00+7s225949 0.0 1030537
13:00+10s224750 0.0 10291560
16:00+11sse2341100 0.0 10271807
19:00+10se3551100 0.0 1026522
22:00+6se3970100 0.0 1026219